Regional Weather Roundup
Issued by NWS

Home | Current Version | Previous Version | Graphics & Text | Print | Product List | Glossary On
Versions: 1 2 3 4 5 6 7 8 9 10 11 12 13 14 15 16 17 18 19 20 21 22 23 24 25 26 27 28 29 30 31 32 33 34 35 36 37 38 39 40 41 42 43 44 45 46 47 48 49 50
000
ASUS45 KCYS 272010
RWRWY

WYOMING REGIONAL WEATHER ROUNDUP
NATIONAL WEATHER SERVICE CHEYENNE WY
200 PM MDT WED AUG 27 2014

NOTE:  "FAIR" INDICATES FEW OR NO CLOUDS BELOW 12,000 FEET
WITH NO SIGNIFICANT WEATHER AND/OR OBSTRUCTIONS TO VISIBILITY.

WYZ001-272100-
YELLOWSTONE NATIONAL PARK

CITY           SKY/WX    TMP DP  RH WIND       PRES   REMARKS
LK YELLOWSTONE   N/A     63  41  44 VRB6      30.35S
W YELLOWSTONE  NOT AVBL

$$
WYZ002>013-054>058-071-098>099-272100-
NORTHERN WYOMING

CITY           SKY/WX    TMP DP  RH WIND       PRES   REMARKS
JACKSON        MOSUNNY   70  43  37 S6        30.26S
CODY           PTSUNNY   73  45  35 N3        30.15S
GREYBULL       CLOUDY    77  49  37 S8        30.09F
WORLAND        CLOUDY    72  52  49 SW3       30.12F
SHERIDAN       CLOUDY    79  50  36 SE8       30.09F
BUFFALO        CLOUDY    73  50  44 SE13      30.16F
GILLETTE       PTSUNNY   77  54  44 E5        30.11F
HULETT         FAIR      77  48  36 MISG      30.12
NEWCASTLE      FAIR      72  57  60 S15G24    30.13

$$
WYZ014>020-022>026-101>103-272100-
CENTRAL WYOMING

CITY           SKY/WX    TMP DP  RH WIND       PRES   REMARKS
BIG PINEY      CLOUDY    57  48  72 SE6       30.32F
PINEDALE       CLOUDY    54  48  82 SE7       30.34S
DUBOIS         CLOUDY    63  41  45 SE15      30.26F
LANDER         LGT RAIN  56  54  93 SE8       30.23S
RIVERTON       LGT RAIN  56  54  93 S13       30.24S
CASPER         LGT RAIN  60  56  86 SW8       30.20S
DOUGLAS        LGT RAIN  62  59  90 W8        30.18S

$$
WYZ021-027>030-104>119-272100-
SOUTHERN WYOMING

CITY           SKY/WX    TMP DP  RH WIND       PRES   REMARKS
EVANSTON       LGT RAIN  56  47  71 NE5       30.35R
KEMMERER       CLOUDY    57  46  67 W8        30.34S
FORT BRIDGER     N/A     55  52  88 NW5       30.37S
ROCK SPRINGS   CLOUDY    57  45  64 N9        30.31S
DIXON          CLOUDY    60  51  73 SW14G22   30.31R
RAWLINS        CLOUDY    59  49  69 W13       30.27F
SARATOGA       CLOUDY    59  48  67 NW12      30.29S
LARAMIE        CLOUDY    64  47  53 NW6       30.25F
CHEYENNE       CLOUDY    62  53  72 N10       30.20F
TORRINGTON     LGT RAIN  59  59 100 SE5       30.12F FOG
PINE BLUFFS    CLOUDY    63  55  77 N9        30.18S

$$



USA.gov is the U.S. government's official web portal to all federal, state and local government web resources and services.